Regional Weather Roundup
Issued by NWS

Home | Current Version | Previous Version | Text Only | Print | Product List | Glossary Off
Versions: 1 2 3 4 5 6 7 8 9 10 11 12 13 14 15 16 17 18 19 20 21 22 23 24 25 26 27 28 29 30 31 32 33 34 35 36 37 38 39 40 41 42 43 44 45 46 47 48 49 50

927
ASUS43 KLSX 241707
RWRMO

WEATHER SUMMARY FOR MISSOURI
NATIONAL WEATHER SERVICE SPRINGFIELD MO
1100 AM CST FRI FEB 24 2017

NOTE: "FAIR" INDICATES FEW OR NO CLOUDS BELOW 12,000 FEET WITH NO
       SIGNIFICANT WEATHER AND/OR OBSTRUCTIONS TO VISIBILITY.
       CURRENT SKY AND/OR WEATHER CONDITIONS ARE NOT AVAILABLE FOR
       CHILLICOTHE AND FARMINGTON.

MOZ001>031-035>038-043-044-053-054-241800-
...NORTHERN AND WESTERN MISSOURI...

CITY           SKY/WX    TMP DP  RH WIND       PRES   REMARKS
KANSAS CTY INT CLOUDY    38  34  85 NW14G22   29.69R WCI  30
KANSAS C DTWN  CLOUDY    41  33  73 W12G20    29.69R
LEE`S SUMMIT   CLOUDY    41  35  79 W13       29.69R
ST JOSEPH      MIX PCPN  35  34  96 N18       29.71R FOG     WCI  24
CHILLICOTHE      N/A     40  36  86 NW10      29.64
KIRKSVILLE     CLOUDY    40  37  89 W12       29.60R

$$
MOZ066>068-077>081-088>096-101>105-241800-
...SOUTHWEST MISSOURI...

CITY           SKY/WX    TMP DP  RH WIND       PRES   REMARKS
SPRINGFIELD    CLOUDY    42  36  79 MISG      29.72R
JOPLIN         PTSUNNY   42  32  67 W20G25    29.78R
BRANSON        CLOUDY    46  39  76 NW13G21   29.72R

$$
MOZ032>034-039>042-045>050-055>058-069>072-241800-
...CENTRAL MISSOURI...

CITY           SKY/WX    TMP DP  RH WIND       PRES   REMARKS
COLUMBIA       CLOUDY    46  39  76 W21       29.62R
JEFFERSON CITY CLOUDY    49  39  68 W15       29.63R
ROLLA          CLOUDY    48  41  76 W12       29.62R
SEDALIA        CLOUDY    45  36  70 W21G31    29.67R
WHITEMAN AFB   CLOUDY    42  37  85 W14G24    29.67R
WARRENSBURG    CLOUDY    41  32  70 W13G23    29.69R
OSAGE BEACH    CLOUDY    47  36  65 W13G21    29.67R

$$
MOZ051-052-059>065-241800-
...EAST CENTRAL MISSOURI...

CITY           SKY/WX    TMP DP  RH WIND       PRES   REMARKS
ST LOUIS INTL  CLOUDY    57  48  72 W18       29.56R
SPIRIT OF STL  CLOUDY    53  47  79 W16G24    29.56R
ST CHARLES     CLOUDY    53  48  83 W20G25    29.56R

$$
MOZ072>076-082>087-097>100-106>115-241800-
...SOUTH CENTRAL AND SOUTHEAST MISSOURI...

CITY           SKY/WX    TMP DP  RH WIND       PRES   REMARKS
CAPE GIRARDEAU PTSUNNY   68  54  60 SW16G24   29.59S
FARMINGTON     CLOUDY    64  53  67 SW12      29.57R
POPLAR BLUFF   PTSUNNY   65  55  70 SW16      29.60R
WEST PLAINS    CLOUDY    52  46  80 W13       29.66

$$



USA.gov is the U.S. government's official web portal to all federal, state and local government web resources and services.